Location: ???? ????
(41.4149°N, 22.8816°E)
Time: 14:59:56
(UTC+00:00)

Meteor 2-4 Rocket - Pass Details

Date: 14 July 2020
Orbit: 800 x 908 km, 81.2° (Epoch: 04 August)

Event Time Altitude Azimuth Distance (km) Brightness Sun altitude
Rises 00:15:39 0° 350° (N) 3,546 7.8 -22.7°
Reaches altitude 10° 00:18:08 10° 350° (N) 2,599 7.0 -22.5°
Maximum altitude 00:24:06 88° 265° (W) 907 3.7 -22.0°
Enters shadow 00:26:30 38° 174° (S) 1,333 4.3 -21.8°
